Regional Weather Roundup
Issued by NWS Kansas City/Pleasant Hill, MO

Home | Current Version | Previous Version | Graphics & Text | Print | Product List | Glossary Off
Versions: 1 2 3 4 5 6 7 8 9 10 11 12 13 14 15 16 17 18 19 20 21 22 23 24 25 26 27

000
ASUS43 KEAX 201610
RWREAX

WEATHER ROUNDUP FOR EASTERN KANSAS AND NORTHWEST MISSOURI
NATIONAL WEATHER SERVICE KANSAS CITY/PLEASANT HILL MO
1100 AM CDT FRI OCT 20 2017

KSZ040-057-103>105-MOZ028-029-037-043-201700-
...KANSAS CITY METROPOLITAN AREA...

CITY           SKY/WX    TMP DP  RH WIND       PRES   REMARKS
K.C. INTL      PTSUNNY   67  56  67 S14       30.05F
K.C. DOWNTOWN  SUNNY     69  56  62 S12       30.05F
LEES SUMMIT    LGT RAIN  64  55  72 S16       30.08F
OLATHE - IXD   SUNNY     65  55  70 S14       30.06F
OLATHE - OJC   SUNNY     64  55  72 S15G22    30.06F
LAWRENCE       SUNNY     67  57  70 SE13      30.03F

$$

MOZ001>008-011>017-020>025-030>033-038>040-044>046-053-054-201700-
...NORTHERN AND CENTRAL MISSOURI...

CITY           SKY/WX    TMP DP  RH WIND       PRES   REMARKS
ST. JOSEPH     CLOUDY    66  56  70 S12G24    30.02F
MOSBY          CLOUDY    68  54  60 S12       30.06F
WARRENSBURG    SUNNY     68  54  60 S13       30.09F
WHITEMAN AFB   MOSUNNY   67  56  66 S15       30.06F
CLINTON        SUNNY     66  55  68 S8        30.13S
SEDALIA        MOSUNNY   68  56  65 S13       30.13F
WARSAW         NOT AVBL
CHILLICOTHE      N/A     66  55  67 S14       30.10F
KIRKSVILLE     CLOUDY    66  55  67 SW9       30.12F

$$

MOZ041-047>049-056>058-063>065-088>090-097-201700-
...EASTERN AND SOUTHERN MISSOURI...

CITY           SKY/WX    TMP DP  RH WIND       PRES   REMARKS
ST. LOUIS INTL NOT AVBL
SPIRIT OF STL  SUNNY     69  53  56 S7        30.19F
COLUMBIA       SUNNY     62  54  74 S8        30.15F
JEFFERSON CITY SUNNY     62  53  72 SE5       30.15F
ROLLA          SUNNY     68  50  52 S10       30.18F
OSAGE BEACH    MOSUNNY   64  54  69 S5        30.17F
SPRINGFIELD    SUNNY     67  53  61 S15       30.16F
BRANSON        MOSUNNY   66  50  55 SE7       30.18F
JOPLIN         SUNNY     66  57  72 S15       30.12F
WEST PLAINS    SUNNY     65  51  60 S7        30.22S

$$

IAZ060-094-KSZ022-034>040-054-083-096-NEZ052-066-093-201700-
...KANSAS...SOUTHEAST NEBRASKA AND IOWA...

CITY           SKY/WX    TMP DP  RH WIND       PRES   REMARKS
TOPEKA         SUNNY     70  57  63 S18G24    30.00F
MANHATTAN      SUNNY     71  58  63 S18G33    29.94F
EMPORIA        SUNNY     68  56  65 S20G31    30.01F
CHANUTE        SUNNY     69  58  67 S18       30.07F
WICHITA        MOSUNNY   70  60  70 S26G36    29.96F
OMAHA          CLOUDY    65  54  67 S17G23    29.92F
LINCOLN        CLOUDY    67  55  65 S21       29.88F
FALLS CITY     CLOUDY    65  54  67 S16G24    29.97F
LAMONI         SUNNY     63  54  72 S9        30.05F
DES MOINES     PTSUNNY   69  53  56 S12G23    30.01F

$$





USA.gov is the U.S. government's official web portal to all federal, state and local government web resources and services.